Guangchuan 02

operational
NORAD ID: 62112 Int'l Des: 2024-221 Owner: HONGQ Country: CN
LEOCIRCULAR

Über Guangchuan 02

Beschreibung wird geladen...

Live-Position

3D-Globus wird geladen...

Nächste Überflüge

Höhenverlauf

Altitude vs Time

uPlot chart will show altitude changes over time

Zweizeiliger Elementsatz

1 62112U 24221B 26062.14239221 .00004948 00000-0 26327-3 0 9991
2 62112 49.9437 318.2656 0006750 279.6652 80.3537 15.16850089 70103
Epoch: 3. März 2026 • Age: 18 hours

Aktueller Status

Höhe 520.1 km
Geschwindigkeit 7.61 km/s
Subsatellitenpunkt 34.18°N, 79.39°W
Startdatum 27. Nov. 2024
Alter 1.2 years
Typ other

Technische Details

Klassifizierung Payload
Masse 500.00 kg
Trockenmasse 500.00 kg
Gesamtmasse 500.00 kg
Länge 0.50 m
Durchmesser 1.80 m
Spannweite 6.00 m
Form Box + 2 pan
Hersteller CAST
Bus-Typ HQ
Phasenstatus In Orbit
Besitzer/Staat HONGQ/CN

Große Konstellationen

Loading constellations...